SCP
0 0 0 0 0 0 0 0 0 0 0 0 0 0 -0 -0 0 0 0 -0 0 0 0 -0 -0 -0 -0 -0 -0 -0 -0 -0 -0 -0 -0 -0 -0 -0 -0 -0 -0 -0 -0 -0 -0 -0 -0 -0 -0
0 0 0 0 0 0 0 0 0 0 0 0 0 0 0 0 0 0 0 0 0 0 0 0 -0 -0 -0 -0 -0 -0 -0 -0 -0 0 -0 -0 -0 -0 -0 -0 -0 -0 -0 -0 -0 -0 -0 -0 -0
0 0 0 0 0 0 0 0 0 0 0 0 0 0 0 0 0 0 -0 0 0 0 0 0 0 0 0 0 -0 0 0 0 0 0 0 0 -0 -0 -0 0 0 -0 -0 -0 -0 -0 -0 -0 -0
0 0 0 0 0 0 0 0 0 0 0 0 0 0 0 0 0 0 0 0 0 0 0 0 0 0 0 0 0 0 0 0 0 0 0 0 0 0 0 0 0 0 0 0 -0 -0 -0 -0 0
0 0 0 0 0 0 0 0 0 0 0 0 0 0 0 0 0 0 0 0 0 0 0 0 0 0 0 0 0 0 0 0 0 0 0 0 0 0 0 0 0 0 0 -0 0 0 0 0 0
0 0 0 0 0 0 0 0 0 0 0 0 0 0 0 0 0 0 0 0 0 0 0 0 0 0 0 0 0 0 0 0 0 0 0 0 0 0 0 0 0 0 0 0 0 0 0 0 0
0 0 0 0 0 0 0 0 0 0 0 0 0 0 0 0 0 0 0 0 0 0 0 0 0 0 0 0 0 0 0 0 0 0 0 0 0 0 0 0 0 0 0 0 0 0 0 0 0
0 0 0 0 0 -0 -0 0 0 0 0 0 -0 0 0 0 0 0 0 0 0 0 0 0 0 0 0 0 0 0 0 0 0 0 0 0 0 0 0 0 0 0 0 0 0 0 0 0 0
0 0 0 0 0 0 0 0 0 0 0 0 -0 0 0 0 0 0 0 0 0 0 0 0 0 0 0 0 0 0 0 0 0 0 0 0 0 0 0 0 0 0 0 0 0 0 0 0 0
0 0 0 0 0 0 0 0 0 0 0 0 0 0 0 0 0 0 0 0 0 0 0 0 0 0 0 0 0 0 0 0 0 0 0 0 0 0 0 0 0 0 0 0 0 0 0 0 0
0 0 0 0 0 0 0 0 0 0 0 0 0 -0 0 0 0 0 0 0 0 0 0 0 0 0 0 0 0 0 0 0 0 0 0 0 0 0 0 0 0 0 0 0 0 0 0 0 0
0 0 0 0 0 0 0 0 0 0 0 0 0 0 0 0 0 0 0 0 0 0 0 0 0 0 0 0 0 0 0 0 0 0 0 0 0 0 0 0 0 0 0 0 0 0 0 0 0
0 0 0 0 0 0 0 0 0 0 0 0 0 0 0 0 0 0 0 0 0 0 0 0 0 0 0 0 0 0 0 0 0 0 0 0 0 0 0 0 0 0 0 0 0 0 0 0 0
0 0 0 0 0 0 0 0 0 0 0 0 0 0 0 0 0 0 0 0 0 0 0 0 0 0 0 0 0 0 0 0 0 0 0 0 0 0 0 0 0 0 0 0 0 0 0 0 0
0 0 0 0 0 0 0 0 0 0 0 0 0 0 0 0 0 0 0 0 0 0 0 0 0 0 0 0 0 0 0 0 0 0 0 0 0 0 0 0 0 0 0 0 0 0 0 0 0
0 0 0 0 0 0 0 0 0 0 0 0 0 0 0 0 0 0 0 0 0 0 0 0 0 0 0 0 0 0 0 0 0 0 0 0 0 0 0 0 0 0 0 0 0 0 0 0 0
0 0 0 0 0 0 0 0 0 0 0 0 0 0 0 0 0 0 0 0 0 0 0 0 0 0 0 0 0 0 0 0 0 0 0 0 0 0 0 0 0 0 0 0 0 0 0 0 0
0 0 0 0 0 0 0 0 0 0 0 0 0 0 0 0 0 0 0 0 0 0 0 0 0 0 0 0 0 0 0 0 0 0 0 0 0 0 0 0 0 0 0 0 0 0 0 0 0
0 0 0 0 0 0 0 0 0 0 0 0 0 0 0 0 0 0 0 0 0 0 0 0 0 0 0 0 0 0 0 0 0 0 0 0 0 0 0 0 0 0 0 0 0 0 0 0 0
0 0 0 0 0 0 0 0 0 0 0 0 0 0 0 0 0 0 0 0 0 0 0 0 0 0 0 0 0 0 0 0 0 0 0 0 0 0 0 0 0 0 0 0 0 0 0 0 0
0 0 0 0 0 0 0 0 0 0 0 0 0 0 0 0 0 0 0 0 0 0 0 0 0 0 0 0 0 0 0 0 0 0 0 0 0 0 0 0 0 0 0 0 0 0 0 0 0
0 0 0 0 0 0 0 0 0 0 0 0 0 0 0 0 0 0 0 0 0 0 0 0 0 0 0 0 0 0 0 0 0 0 0 0 0 0 0 0 0 0 0 0 0 0 0 0 0
0 0 0 0 0 0 0 0 0 0 -0 -0 0 0 0 0 0 0 0 0 0 0 0 0 0 0 0 0 0 0 0 0 0 0 0 0 0 0 0 0 0 0 0 0 0 0 0 0 0
0 0 0 0 0 0 0 0 0 0 -0 -0 -0 0 0 0 0 0 0 0 0 0 0 0 0 0 0 0 0 0 0 0 0 0 0 0 0 0 0 0 0 0 0 0 0 0 0 0 0
0 0 -0 0 0 0 0 0 0 -0 0 0 0 0 0 0 0 0 0 0 0 0 0 0 0 0 0 0 0 0 0 0 0 0 0 0 0 0 0 0 0 0 0 0 0 0 0 0 0
0 0 0 0 0 0 0 0 0 0 0 0 0 0 0 0 0 0 0 0 0 0 0 0 0 0 0 0 0 0 0 0 0 0 0 0 0 0 0 0 0 0 0 0 0 0 0 0 0
0 0 0 0 0 0 0 0 0 0 0 0 0 0 0 0 0 0 0 0 0 0 0 0 0 0 0 0 0 0 0 0 0 0 0 0 0 0 0 0 0 0 0 0 0 0 0 0 0
0 0 0 -0 0 0 0 0 0 0 0 0 0 0 0 0 0 0 0 0 0 0 0 0 0 0 0 0 0 0 0 0 0 0 0 0 0 0 0 0 0 0 0 0 0 0 0 0 0
0 0 -0 -0 0 0 0 0 0 0 0 0 0 0 0 0 0 0 0 0 0 0 0 0 0 0 0 0 0 0 0 0 0 0 0 0 0 0 0 0 0 0 0 0 0 0 0 0 0
-0 -0 -0 -0 0 0 0 0 0 -0 -0 0 0 0 0 0 0 0 0 0 0 0 0 0 0 0 0 0 0 0 0 0 0 0 0 0 0 0 0 0 0 0 0 0 0 0 0 0 0
Wind_Speed_500mb
11 11 8 6 4 7 7 13 8 19 11 8 34 11 10 13 7 8 4 18 13 26 33 47 49 52 53 51 48 45 42 40 39 38 37 37 36 34 32 30 29 29 29 26 22 20 18 17 15
11 9 6 3 5 6 10 11 24 30 25 53 30 8 2 6 9 10 16 17 16 19 31 47 49 53 55 54 51 48 44 42 41 40 39 38 35 33 30 29 28 28 27 24 21 18 19 16 12
8 12 9 6 8 20 10 14 26 22 37 21 13 6 5 8 10 9 15 17 17 21 27 42 51 53 56 56 53 51 47 44 43 43 41 40 37 34 32 30 29 27 26 23 20 23 21 13 10
7 9 6 6 33 14 15 17 12 10 36 42 33 11 11 18 15 13 12 13 15 19 23 35 49 55 58 59 57 54 51 48 47 45 43 41 39 36 34 31 31 29 28 28 31 28 16 14 13
13 6 5 8 33 9 21 34 30 24 17 35 24 19 17 32 29 32 30 21 25 23 29 35 48 55 60 62 61 58 55 53 51 47 45 41 38 36 35 34 35 35 33 37 35 26 24 21 19
12 7 7 12 38 30 17 40 45 39 55 57 15 34 40 44 44 40 41 39 37 32 29 34 43 56 61 64 64 63 60 58 55 50 46 42 38 37 38 40 39 40 40 36 33 32 28 26 23
14 7 10 20 39 42 32 26 30 40 39 56 33 9 32 45 51 52 47 42 43 43 42 40 45 57 63 65 66 66 64 63 59 55 50 46 47 46 46 44 41 43 42 41 38 36 33 30 26
12 5 8 14 31 49 41 49 47 32 31 53 38 11 22 52 46 57 54 50 50 52 50 47 48 57 65 69 68 68 66 65 64 60 56 54 56 54 44 46 46 46 46 44 42 40 36 33 29
16 4 15 22 33 31 18 10 44 47 54 66 54 27 45 45 32 50 53 52 55 57 57 55 53 59 66 70 72 70 67 67 65 61 61 60 62 59 48 48 48 49 48 47 44 40 38 33 33
14 9 20 13 26 38 39 24 33 15 29 58 66 52 38 39 30 41 63 65 64 65 66 60 59 60 61 71 75 75 73 69 67 67 66 66 67 59 51 49 50 51 50 48 44 41 38 37 38
13 19 19 24 51 44 26 19 27 17 30 56 51 75 31 30 30 40 51 59 62 63 67 65 64 63 64 67 76 80 81 80 74 72 69 72 71 64 55 53 53 54 52 49 45 42 40 40 40
15 28 47 37 57 46 19 61 24 47 55 60 74 80 82 76 71 59 58 63 65 69 65 68 68 71 68 67 72 79 87 87 88 78 79 78 78 73 63 58 55 53 51 48 44 43 43 43 40
23 20 44 57 59 57 53 38 60 85 75 70 79 89 92 89 90 87 82 74 69 77 78 77 79 81 77 76 75 77 91 94 92 82 85 83 80 79 67 61 57 53 51 49 47 48 47 44 41
21 19 35 44 48 47 30 34 43 84 79 58 65 85 96 98 96 95 93 94 85 81 86 84 87 88 86 84 82 80 86 96 94 91 92 88 83 82 72 63 59 54 52 49 49 48 45 43 42
21 29 34 34 18 18 26 43 62 84 83 81 77 94 102 107 105 108 105 100 87 89 84 91 92 96 94 89 87 84 78 93 99 99 97 93 88 86 78 65 62 55 53 52 54 53 49 47 43
19 16 17 2 13 12 25 66 20 20 52 80 78 85 88 82 78 78 78 80 83 84 93 95 97 100 97 93 91 89 85 82 98 102 99 97 93 90 82 70 66 57 56 57 58 55 52 48 45
6 27 36 46 15 11 21 60 26 58 56 61 75 66 75 85 85 62 50 57 64 74 86 90 97 101 100 98 96 94 92 90 93 104 102 102 97 93 85 74 68 62 61 63 61 58 53 49 46
12 15 21 35 1 14 33 59 54 53 38 50 65 75 75 68 74 62 73 65 56 65 79 85 97 100 103 103 105 102 98 97 96 103 108 107 100 95 88 79 74 69 67 67 65 60 55 50 43
39 41 52 66 41 29 45 45 58 32 38 46 61 65 70 75 97 101 95 80 72 69 67 88 98 101 106 112 111 111 111 104 103 103 104 106 100 97 94 87 80 74 74 73 68 62 59 56 53
38 48 62 59 37 27 56 52 61 54 46 40 56 68 70 81 92 94 91 88 95 96 97 93 93 103 109 114 115 113 112 107 101 99 99 100 101 100 96 89 84 81 80 77 71 69 67 62 59
43 33 48 53 53 39 41 50 51 50 43 57 60 69 77 73 92 99 95 96 102 101 96 94 102 96 102 111 111 109 100 103 102 103 99 102 103 97 91 90 88 85 82 80 77 74 71 70 67
36 20 51 52 40 38 3 39 44 41 38 31 36 53 64 63 45 51 66 66 69 76 75 80 90 97 98 104 119 119 118 115 112 106 101 101 101 97 96 95 91 88 86 84 81 77 75 71 70
26 41 44 53 42 42 55 27 39 31 52 31 22 44 21 25 30 31 24 21 19 30 56 69 83 93 96 109 118 117 116 114 107 105 104 100 98 98 99 97 93 93 92 87 86 84 82 76 72
35 42 48 25 21 32 41 27 39 45 44 46 19 27 33 36 37 39 38 32 30 26 18 41 67 79 89 101 112 113 114 114 110 103 97 97 101 104 103 102 100 94 92 91 87 84 82 81 75
44 42 13 9 11 27 19 16 37 24 28 20 16 39 47 54 57 54 54 54 48 46 38 12 34 54 76 97 106 110 115 115 115 110 101 93 98 108 108 106 98 100 95 91 90 87 82 79 77
28 16 10 14 15 21 29 14 8 30 38 53 53 46 56 65 65 62 57 53 51 49 45 35 12 18 48 75 92 102 107 108 106 102 97 92 91 97 103 106 103 102 99 97 95 90 84 81 80
23 16 26 12 33 15 11 2 22 39 37 38 45 55 59 60 65 67 59 56 53 49 46 41 28 6 27 52 70 84 92 97 96 92 88 85 84 85 89 99 105 104 101 100 97 92 88 85 81
15 23 15 11 12 16 17 17 24 44 35 35 39 47 55 58 67 69 63 60 53 46 40 36 35 30 8 24 43 55 67 76 80 80 81 80 77 77 80 84 95 104 101 101 101 95 91 86 82
13 18 9 10 10 9 16 7 24 30 31 33 33 49 52 55 61 68 64 59 54 49 41 37 36 35 25 10 15 29 38 51 60 67 71 72 71 72 75 76 82 90 100 103 101 98 94 90 85
17 16 11 9 11 18 15 10 32 28 26 31 32 37 44 52 56 61 65 66 64 60 53 46 38 35 34 28 9 15 31 41 50 58 60 63 64 67 70 71 74 78 88 101 102 101 98 94 90
Wind_Direction_500mb
309 302 287 287 35 67 246 253 257 277 309 246 312 264 171 175 195 214 176 175 161 171 176 183 187 189 190 190 187 186 186 184 180 178 174 171 168 164 162 160 159 159 163 165 158 155 152 151 149
291 251 216 124 116 239 255 238 247 255 253 299 278 237 144 249 203 246 195 197 158 177 185 186 190 193 194 195 194 192 191 189 187 184 181 178 175 173 171 169 170 169 170 170 170 173 165 163 166
286 205 185 155 208 226 233 233 240 262 275 292 291 260 203 203 189 213 200 214 195 194 197 194 194 198 199 199 199 198 197 196 195 192 188 186 183 182 181 181 182 182 182 185 187 180 178 181 199
196 176 208 157 236 224 220 240 235 289 289 284 257 273 230 222 240 252 228 246 215 214 213 208 202 201 203 203 203 203 202 201 201 199 196 194 191 193 190 190 191 194 195 200 190 190 217 232 233
205 180 216 216 253 254 237 250 273 282 269 274 254 253 241 252 229 242 242 250 261 246 227 216 210 208 206 206 207 207 207 206 206 203 201 200 199 200 202 204 206 201 193 185 195 213 231 248 253
195 219 195 220 254 252 255 253 263 265 277 278 255 246 255 262 231 232 231 246 249 241 242 226 220 214 211 209 209 209 209 209 209 206 204 203 204 202 203 203 200 198 201 214 217 228 238 246 253
182 176 222 236 261 268 257 256 234 251 261 271 267 218 273 266 256 245 243 240 242 233 236 233 225 218 216 213 212 212 212 212 210 208 205 203 197 198 200 204 208 212 219 222 227 233 238 243 245
221 157 221 218 247 272 262 251 252 242 268 283 283 251 256 281 271 236 225 222 225 225 232 231 226 221 218 217 215 215 214 213 211 210 206 204 203 216 220 214 217 219 223 227 231 237 240 240 236
207 223 221 227 229 244 251 294 276 280 285 290 287 269 290 294 271 228 213 210 217 226 228 227 226 223 220 220 217 216 217 217 211 208 208 207 211 220 219 216 219 223 228 234 237 238 239 236 223
186 206 219 225 235 262 276 269 276 280 284 290 287 290 293 306 261 245 219 214 218 225 227 227 229 229 224 221 220 217 217 216 211 209 211 211 216 225 217 217 222 228 232 235 239 238 235 225 217
213 230 228 246 246 257 280 268 249 260 264 255 269 283 283 279 261 246 242 235 235 237 234 233 231 231 228 224 224 219 218 216 215 213 215 216 218 228 220 221 225 231 232 234 236 235 225 218 217
255 236 241 257 252 259 247 278 256 238 247 264 270 274 275 271 260 244 246 251 243 238 243 245 237 232 232 231 230 227 221 217 218 216 216 216 220 227 223 226 232 236 236 235 234 227 219 217 219
239 252 250 250 253 254 262 265 271 271 266 261 261 264 267 268 268 262 253 250 253 247 245 240 236 232 233 231 233 230 224 222 222 219 218 220 223 226 227 229 233 237 236 232 228 219 218 219 220
281 274 271 271 265 261 254 266 259 265 269 260 256 262 267 266 262 264 261 255 249 250 242 244 237 235 234 234 235 233 230 226 222 221 222 223 226 227 231 231 234 236 234 230 223 222 221 222 223
305 302 294 263 241 235 246 269 246 256 271 265 258 260 263 264 264 261 261 262 257 250 244 240 242 235 234 237 238 237 236 229 224 223 223 225 228 228 230 234 233 235 232 227 222 220 220 220 222
315 297 292 228 220 267 176 258 254 267 257 264 262 256 262 265 267 267 264 264 262 251 243 242 238 236 237 238 241 239 238 235 227 224 226 227 229 229 231 234 231 232 230 226 223 221 221 221 220
195 270 269 285 226 255 188 264 271 263 244 253 265 265 262 266 270 272 276 270 266 257 246 245 239 237 239 238 238 239 239 236 231 227 228 226 229 230 233 236 231 230 228 224 222 222 221 223 219
287 280 277 270 295 239 243 254 260 262 286 261 262 270 272 263 263 271 286 283 274 260 254 251 246 242 241 239 234 233 236 237 235 232 231 229 229 231 233 236 231 229 226 222 220 220 220 218 219
303 289 282 275 281 291 277 270 271 275 259 266 265 268 270 270 270 274 277 276 273 266 263 252 247 243 238 233 229 229 233 235 234 234 234 233 231 231 234 236 230 227 226 222 219 217 218 216 212
307 289 277 288 292 254 270 264 271 268 267 255 266 274 271 272 277 280 278 276 275 270 264 258 251 244 241 239 238 236 236 236 240 237 232 233 232 233 235 233 228 227 223 219 219 218 214 213 213
324 299 300 286 289 275 293 285 269 270 267 267 270 273 278 274 279 279 276 276 279 276 271 261 254 248 244 240 234 229 229 231 231 232 231 231 232 234 234 229 227 227 224 220 219 219 217 217 211
316 332 313 301 302 267 201 273 269 280 279 287 278 279 282 289 293 282 277 280 273 266 264 264 258 250 246 238 231 232 233 231 233 234 234 231 230 231 230 228 228 227 224 219 220 221 220 218 219
296 299 295 286 276 274 252 260 279 276 278 271 286 292 328 8 14 13 5 357 318 280 258 250 250 250 244 236 232 232 233 236 237 233 231 233 230 230 228 228 228 227 223 221 220 219 218 219 219
308 309 292 252 236 246 253 233 261 270 269 271 229 74 39 26 18 17 13 13 10 3 316 242 234 241 240 235 232 232 234 233 231 231 230 231 231 230 228 229 228 227 224 222 222 222 222 220 221
355 350 331 319 248 249 206 210 254 274 352 331 30 44 36 30 21 14 12 9 10 12 13 349 234 229 234 231 231 232 233 233 235 234 235 232 231 229 228 229 227 228 225 224 224 225 224 222 224
324 336 316 300 301 303 292 210 57 40 36 47 50 43 34 26 19 15 11 8 8 11 14 22 26 219 223 231 234 232 230 231 232 234 236 238 240 238 232 230 228 229 226 225 225 225 225 224 225
321 355 290 269 257 254 235 279 51 20 27 33 32 33 28 22 15 13 10 9 7 10 15 19 31 59 213 220 232 235 234 234 235 237 240 243 244 243 240 235 231 230 228 227 227 226 225 224 224
43 348 352 332 317 321 313 59 9 359 16 22 25 23 19 17 16 13 11 10 9 7 9 21 32 39 55 217 225 236 241 240 241 243 244 244 246 246 244 241 236 233 231 229 228 227 226 225 225
1 355 1 290 306 324 331 71 34 34 20 15 16 13 13 13 14 14 14 14 15 15 15 19 27 36 50 85 207 223 237 249 251 249 249 249 250 249 247 245 241 238 234 232 229 228 227 225 225
4 312 326 336 314 293 255 258 36 44 28 18 14 11 11 8 11 17 22 22 23 21 21 22 24 31 42 53 90 206 223 233 237 247 252 250 250 249 248 247 245 242 238 234 231 228 227 225 224
Wind_Speed_850mb
11 11 8 6 4 7 7 13 8 19 11 8 34 11 10 13 7 8 4 18 13 26 33 47 49 52 53 51 48 45 42 40 39 38 37 37 36 34 32 30 29 29 29 26 22 20 18 17 15
11 9 6 3 5 6 10 11 24 30 25 53 30 8 2 6 9 10 16 17 16 19 31 47 49 53 55 54 51 48 44 42 41 40 39 38 35 33 30 29 28 28 27 24 21 18 19 16 12
8 12 9 6 8 20 10 14 26 22 37 21 13 6 5 8 10 9 15 17 17 21 27 42 51 53 56 56 53 51 47 44 43 43 41 40 37 34 32 30 29 27 26 23 20 23 21 13 10
7 9 6 6 33 14 15 17 12 10 36 42 33 11 11 18 15 13 12 13 15 19 23 35 49 55 58 59 57 54 51 48 47 45 43 41 39 36 34 31 31 29 28 28 31 28 16 14 13
13 6 5 8 33 9 21 34 30 24 17 35 24 19 17 32 29 32 30 21 25 23 29 35 48 55 60 62 61 58 55 53 51 47 45 41 38 36 35 34 35 35 33 37 35 26 24 21 19
12 7 7 12 38 30 17 40 45 39 55 57 15 34 40 44 44 40 41 39 37 32 29 34 43 56 61 64 64 63 60 58 55 50 46 42 38 37 38 40 39 40 40 36 33 32 28 26 23
14 7 10 20 39 42 32 26 30 40 39 56 33 9 32 45 51 52 47 42 43 43 42 40 45 57 63 65 66 66 64 63 59 55 50 46 47 46 46 44 41 43 42 41 38 36 33 30 26
12 5 8 14 31 49 41 49 47 32 31 53 38 11 22 52 46 57 54 50 50 52 50 47 48 57 65 69 68 68 66 65 64 60 56 54 56 54 44 46 46 46 46 44 42 40 36 33 29
16 4 15 22 33 31 18 10 44 47 54 66 54 27 45 45 32 50 53 52 55 57 57 55 53 59 66 70 72 70 67 67 65 61 61 60 62 59 48 48 48 49 48 47 44 40 38 33 33
14 9 20 13 26 38 39 24 33 15 29 58 66 52 38 39 30 41 63 65 64 65 66 60 59 60 61 71 75 75 73 69 67 67 66 66 67 59 51 49 50 51 50 48 44 41 38 37 38
13 19 19 24 51 44 26 19 27 17 30 56 51 75 31 30 30 40 51 59 62 63 67 65 64 63 64 67 76 80 81 80 74 72 69 72 71 64 55 53 53 54 52 49 45 42 40 40 40
15 28 47 37 57 46 19 61 24 47 55 60 74 80 82 76 71 59 58 63 65 69 65 68 68 71 68 67 72 79 87 87 88 78 79 78 78 73 63 58 55 53 51 48 44 43 43 43 40
23 20 44 57 59 57 53 38 60 85 75 70 79 89 92 89 90 87 82 74 69 77 78 77 79 81 77 76 75 77 91 94 92 82 85 83 80 79 67 61 57 53 51 49 47 48 47 44 41
21 19 35 44 48 47 30 34 43 84 79 58 65 85 96 98 96 95 93 94 85 81 86 84 87 88 86 84 82 80 86 96 94 91 92 88 83 82 72 63 59 54 52 49 49 48 45 43 42
21 29 34 34 18 18 26 43 62 84 83 81 77 94 102 107 105 108 105 100 87 89 84 91 92 96 94 89 87 84 78 93 99 99 97 93 88 86 78 65 62 55 53 52 54 53 49 47 43
19 16 17 2 13 12 25 66 20 20 52 80 78 85 88 82 78 78 78 80 83 84 93 95 97 100 97 93 91 89 85 82 98 102 99 97 93 90 82 70 66 57 56 57 58 55 52 48 45
6 27 36 46 15 11 21 60 26 58 56 61 75 66 75 85 85 62 50 57 64 74 86 90 97 101 100 98 96 94 92 90 93 104 102 102 97 93 85 74 68 62 61 63 61 58 53 49 46
12 15 21 35 1 14 33 59 54 53 38 50 65 75 75 68 74 62 73 65 56 65 79 85 97 100 103 103 105 102 98 97 96 103 108 107 100 95 88 79 74 69 67 67 65 60 55 50 43
39 41 52 66 41 29 45 45 58 32 38 46 61 65 70 75 97 101 95 80 72 69 67 88 98 101 106 112 111 111 111 104 103 103 104 106 100 97 94 87 80 74 74 73 68 62 59 56 53
38 48 62 59 37 27 56 52 61 54 46 40 56 68 70 81 92 94 91 88 95 96 97 93 93 103 109 114 115 113 112 107 101 99 99 100 101 100 96 89 84 81 80 77 71 69 67 62 59
43 33 48 53 53 39 41 50 51 50 43 57 60 69 77 73 92 99 95 96 102 101 96 94 102 96 102 111 111 109 100 103 102 103 99 102 103 97 91 90 88 85 82 80 77 74 71 70 67
36 20 51 52 40 38 3 39 44 41 38 31 36 53 64 63 45 51 66 66 69 76 75 80 90 97 98 104 119 119 118 115 112 106 101 101 101 97 96 95 91 88 86 84 81 77 75 71 70
26 41 44 53 42 42 55 27 39 31 52 31 22 44 21 25 30 31 24 21 19 30 56 69 83 93 96 109 118 117 116 114 107 105 104 100 98 98 99 97 93 93 92 87 86 84 82 76 72
35 42 48 25 21 32 41 27 39 45 44 46 19 27 33 36 37 39 38 32 30 26 18 41 67 79 89 101 112 113 114 114 110 103 97 97 101 104 103 102 100 94 92 91 87 84 82 81 75
44 42 13 9 11 27 19 16 37 24 28 20 16 39 47 54 57 54 54 54 48 46 38 12 34 54 76 97 106 110 115 115 115 110 101 93 98 108 108 106 98 100 95 91 90 87 82 79 77
28 16 10 14 15 21 29 14 8 30 38 53 53 46 56 65 65 62 57 53 51 49 45 35 12 18 48 75 92 102 107 108 106 102 97 92 91 97 103 106 103 102 99 97 95 90 84 81 80
23 16 26 12 33 15 11 2 22 39 37 38 45 55 59 60 65 67 59 56 53 49 46 41 28 6 27 52 70 84 92 97 96 92 88 85 84 85 89 99 105 104 101 100 97 92 88 85 81
15 23 15 11 12 16 17 17 24 44 35 35 39 47 55 58 67 69 63 60 53 46 40 36 35 30 8 24 43 55 67 76 80 80 81 80 77 77 80 84 95 104 101 101 101 95 91 86 82
13 18 9 10 10 9 16 7 24 30 31 33 33 49 52 55 61 68 64 59 54 49 41 37 36 35 25 10 15 29 38 51 60 67 71 72 71 72 75 76 82 90 100 103 101 98 94 90 85
17 16 11 9 11 18 15 10 32 28 26 31 32 37 44 52 56 61 65 66 64 60 53 46 38 35 34 28 9 15 31 41 50 58 60 63 64 67 70 71 74 78 88 101 102 101 98 94 90
Wind_Direction_850mb
309 302 287 287 35 67 246 253 257 277 309 246 312 264 171 175 195 214 176 175 161 171 176 183 187 189 190 190 187 186 186 184 180 178 174 171 168 164 162 160 159 159 163 165 158 155 152 151 149
291 251 216 124 116 239 255 238 247 255 253 299 278 237 144 249 203 246 195 197 158 177 185 186 190 193 194 195 194 192 191 189 187 184 181 178 175 173 171 169 170 169 170 170 170 173 165 163 166
286 205 185 155 208 226 233 233 240 262 275 292 291 260 203 203 189 213 200 214 195 194 197 194 194 198 199 199 199 198 197 196 195 192 188 186 183 182 181 181 182 182 182 185 187 180 178 181 199
196 176 208 157 236 224 220 240 235 289 289 284 257 273 230 222 240 252 228 246 215 214 213 208 202 201 203 203 203 203 202 201 201 199 196 194 191 193 190 190 191 194 195 200 190 190 217 232 233
205 180 216 216 253 254 237 250 273 282 269 274 254 253 241 252 229 242 242 250 261 246 227 216 210 208 206 206 207 207 207 206 206 203 201 200 199 200 202 204 206 201 193 185 195 213 231 248 253
195 219 195 220 254 252 255 253 263 265 277 278 255 246 255 262 231 232 231 246 249 241 242 226 220 214 211 209 209 209 209 209 209 206 204 203 204 202 203 203 200 198 201 214 217 228 238 246 253
182 176 222 236 261 268 257 256 234 251 261 271 267 218 273 266 256 245 243 240 242 233 236 233 225 218 216 213 212 212 212 212 210 208 205 203 197 198 200 204 208 212 219 222 227 233 238 243 245
221 157 221 218 247 272 262 251 252 242 268 283 283 251 256 281 271 236 225 222 225 225 232 231 226 221 218 217 215 215 214 213 211 210 206 204 203 216 220 214 217 219 223 227 231 237 240 240 236
207 223 221 227 229 244 251 294 276 280 285 290 287 269 290 294 271 228 213 210 217 226 228 227 226 223 220 220 217 216 217 217 211 208 208 207 211 220 219 216 219 223 228 234 237 238 239 236 223
186 206 219 225 235 262 276 269 276 280 284 290 287 290 293 306 261 245 219 214 218 225 227 227 229 229 224 221 220 217 217 216 211 209 211 211 216 225 217 217 222 228 232 235 239 238 235 225 217
213 230 228 246 246 257 280 268 249 260 264 255 269 283 283 279 261 246 242 235 235 237 234 233 231 231 228 224 224 219 218 216 215 213 215 216 218 228 220 221 225 231 232 234 236 235 225 218 217
255 236 241 257 252 259 247 278 256 238 247 264 270 274 275 271 260 244 246 251 243 238 243 245 237 232 232 231 230 227 221 217 218 216 216 216 220 227 223 226 232 236 236 235 234 227 219 217 219
239 252 250 250 253 254 262 265 271 271 266 261 261 264 267 268 268 262 253 250 253 247 245 240 236 232 233 231 233 230 224 222 222 219 218 220 223 226 227 229 233 237 236 232 228 219 218 219 220
281 274 271 271 265 261 254 266 259 265 269 260 256 262 267 266 262 264 261 255 249 250 242 244 237 235 234 234 235 233 230 226 222 221 222 223 226 227 231 231 234 236 234 230 223 222 221 222 223
305 302 294 263 241 235 246 269 246 256 271 265 258 260 263 264 264 261 261 262 257 250 244 240 242 235 234 237 238 237 236 229 224 223 223 225 228 228 230 234 233 235 232 227 222 220 220 220 222
315 297 292 228 220 267 176 258 254 267 257 264 262 256 262 265 267 267 264 264 262 251 243 242 238 236 237 238 241 239 238 235 227 224 226 227 229 229 231 234 231 232 230 226 223 221 221 221 220
195 270 269 285 226 255 188 264 271 263 244 253 265 265 262 266 270 272 276 270 266 257 246 245 239 237 239 238 238 239 239 236 231 227 228 226 229 230 233 236 231 230 228 224 222 222 221 223 219
287 280 277 270 295 239 243 254 260 262 286 261 262 270 272 263 263 271 286 283 274 260 254 251 246 242 241 239 234 233 236 237 235 232 231 229 229 231 233 236 231 229 226 222 220 220 220 218 219
303 289 282 275 281 291 277 270 271 275 259 266 265 268 270 270 270 274 277 276 273 266 263 252 247 243 238 233 229 229 233 235 234 234 234 233 231 231 234 236 230 227 226 222 219 217 218 216 212
307 289 277 288 292 254 270 264 271 268 267 255 266 274 271 272 277 280 278 276 275 270 264 258 251 244 241 239 238 236 236 236 240 237 232 233 232 233 235 233 228 227 223 219 219 218 214 213 213
324 299 300 286 289 275 293 285 269 270 267 267 270 273 278 274 279 279 276 276 279 276 271 261 254 248 244 240 234 229 229 231 231 232 231 231 232 234 234 229 227 227 224 220 219 219 217 217 211
316 332 313 301 302 267 201 273 269 280 279 287 278 279 282 289 293 282 277 280 273 266 264 264 258 250 246 238 231 232 233 231 233 234 234 231 230 231 230 228 228 227 224 219 220 221 220 218 219
296 299 295 286 276 274 252 260 279 276 278 271 286 292 328 8 14 13 5 357 318 280 258 250 250 250 244 236 232 232 233 236 237 233 231 233 230 230 228 228 228 227 223 221 220 219 218 219 219
308 309 292 252 236 246 253 233 261 270 269 271 229 74 39 26 18 17 13 13 10 3 316 242 234 241 240 235 232 232 234 233 231 231 230 231 231 230 228 229 228 227 224 222 222 222 222 220 221
355 350 331 319 248 249 206 210 254 274 352 331 30 44 36 30 21 14 12 9 10 12 13 349 234 229 234 231 231 232 233 233 235 234 235 232 231 229 228 229 227 228 225 224 224 225 224 222 224
324 336 316 300 301 303 292 210 57 40 36 47 50 43 34 26 19 15 11 8 8 11 14 22 26 219 223 231 234 232 230 231 232 234 236 238 240 238 232 230 228 229 226 225 225 225 225 224 225
321 355 290 269 257 254 235 279 51 20 27 33 32 33 28 22 15 13 10 9 7 10 15 19 31 59 213 220 232 235 234 234 235 237 240 243 244 243 240 235 231 230 228 227 227 226 225 224 224
43 348 352 332 317 321 313 59 9 359 16 22 25 23 19 17 16 13 11 10 9 7 9 21 32 39 55 217 225 236 241 240 241 243 244 244 246 246 244 241 236 233 231 229 228 227 226 225 225
1 355 1 290 306 324 331 71 34 34 20 15 16 13 13 13 14 14 14 14 15 15 15 19 27 36 50 85 207 223 237 249 251 249 249 249 250 249 247 245 241 238 234 232 229 228 227 225 225
4 312 326 336 314 293 255 258 36 44 28 18 14 11 11 8 11 17 22 22 23 21 21 22 24 31 42 53 90 206 223 233 237 247 252 250 250 249 248 247 245 242 238 234 231 228 227 225 224